Regional Weather Roundup
Issued by NWS

Home | Current Version | Previous Version | Text Only | Print | Product List | Glossary On
Versions: 1 2 3 4 5 6 7 8 9 10 11 12 13 14 15 16 17 18 19 20 21 22 23 24 25 26 27
000
ASUS44 KBMX 081010
RWRAL

ALABAMA REGIONAL WEATHER ROUNDUP
NATIONAL WEATHER SERVICE BIRMINGHAM AL
400 AM CST WED DEC 08 2021

NOTE: "FAIR" INDICATES FEW OR NO CLOUDS BELOW 12,000 FEET
WITH NO SIGNIFICANT WEATHER AND/OR OBSTRUCTIONS TO VISIBILITY.

THE REMARK "TC" DENOTES TEMPERATURE IN DEGREES CELSIUS.

ALZ001>011-014-016>018-020-081100-
NORTH ALABAMA

CITY           SKY/WX    TMP DP  RH WIND       PRES   REMARKS
MUSCLE SHOALS  CLOUDY    44  35  70 NW7       30.01F
HUNTSVILLE     CLOUDY    42  40  92 CALM      29.99F
DECATUR        CLOUDY    43  36  76 NW5       30.01F
HALEYVILLE     CLOUDY    39  38  96 CALM      30.02S
GADSDEN        CLOUDY    44  44 100 CALM      29.99S FOG
$$

ALZ012-013-022-023-030>036-040>044-081100-
WEST CENTRAL ALABAMA

CITY           SKY/WX    TMP DP  RH WIND       PRES   REMARKS
TUSCALOOSA     CLOUDY    45  45 100 NW5       30.01S
DEMOPOLIS      RAIN      45  45 100 MISG      30.00F
$$

ALZ015-024>026-033>036-041>044-081100-
CENTRAL ALABAMA

CITY           SKY/WX    TMP DP  RH WIND       PRES   REMARKS
BIRMINGHAM     CLOUDY    45  45 100 NW5       29.98F FOG
MONTGOMERY     CLOUDY    52  50  93 CALM      29.95F
SHELBY CO ARPT LGT RAIN  47  44  90 NW8       29.97S FOG
MAXWELL AFB    CLOUDY    50  50 100 CALM      29.93F FOG
GREENVILLE     FOG       58  55  90 VRB6      29.93F VSB 1/4
SELMA          CLOUDY    48  48 100 CALM      29.96S
PRATTVILLE     LGT RAIN  50  50 100 NW3       29.95S
BESSEMER       CLOUDY    44  44 100 NW7       29.98F FOG
TALLADEGA      CLOUDY    44  44 100 CALM      29.98F FOG
PELL CITY      CLOUDY    45  43  93 CALM      29.98S FOG
SYLACAUGA      LGT RAIN  46  45  99 CALM      29.97S
$$

ALZ019-021-028-029-037-038-045>048-081100-
EAST CENTRAL ALABAMA

CITY           SKY/WX    TMP DP  RH WIND       PRES   REMARKS
ANNISTON       CLOUDY    46  45  96 S3        29.96F FOG
ALEXANDER CITY HVY RAIN  49  49  99 CALM      29.94F
AUBURN         LGT RAIN  54  54 100 CALM      29.94F VSB 3/4
$$

ALZ051>064-081100-
SOUTHWEST ALABAMA

CITY           SKY/WX    TMP DP  RH WIND       PRES   REMARKS
MOBILE         FOG       58  58 100 SE3       29.96F VSB 1/4
BROOKLEY FIELD FOG       60  58  92 CALM      29.97F VSB 1/4
EVERGREEN      FOG       59  56  89 CALM      29.96F VSB 1/4
$$

ALZ049-050-065>069-081100-
SOUTHEAST ALABAMA

CITY           SKY/WX    TMP DP  RH WIND       PRES   REMARKS
DOTHAN         FOG       64  64 100 SW8       29.99S VSB 1/2
OZARK          FOG       60  60  99 CALM      29.95F VSB 5/8
TROY           CLOUDY    63  60  90 SW8       29.94F FOG
EUFAULA        FOG       62  60  93 S5        29.94  VSB 1/2
$$



USA.gov is the U.S. government's official web portal to all federal, state and local government web resources and services.